Location: Handeloh
(53.2500°N, 9.8330°E)
Time: 13:07:32
(UTC+01:00)

Vanguard 1 - Visible Passes

Search period start: 22 November 2019 00:00
Search period end: 02 December 2019 00:00
Orbit: 652 x 3831 km, 34.2° (Epoch: 21 November)

Date Brightness Start Highest point End Pass type
(mag) Time Alt. Az. Time Alt. Az. Time Alt. Az.
26 Nov 14.3 06:33:48 10° S 06:39:53 13° SSE 06:44:57 10° SE visible
27 Nov 14.1 06:51:22 10° S 07:00:38 17° SSE 07:07:38 10° ESE visible
28 Nov 13.9 07:10:09 10° SSW 07:21:23 21° SSE 07:29:21 10° ESE visible
29 Nov 14.3 05:14:02 10° SSE 05:20:48 13° SE 05:26:36 10° SE visible
29 Nov 13.7 07:29:37 10° SSW 07:42:08 25° SSE 07:50:38 10° ESE visible
30 Nov 14.1 05:30:48 10° S 05:41:29 17° SSE 05:49:50 10° ESE visible
01 Dec 14.0 05:49:06 10° SSW 06:02:11 22° SSE 06:11:51 10° ESE visible
